Location: Pedimozza
(42.0500°N, 9.3500°E)
Time: 20:03:14
(UTC+00:00)

Cosmos 1898 Rocket - Pass Details

Date: 19 August 2019
Orbit: 755 x 783 km, 74.0° (Epoch: 23 September)

Event Time Altitude Azimuth Distance (km) Brightness Sun altitude
Exits shadow 19:49:35 26° 123° (ESE) 1,473 4.4 -16.1°
Maximum altitude 19:50:45 29° 100° (E) 1,390 4.3 -16.3°
Drops below altitude 10° 19:55:13 10° 41° (NE) 2,313 5.9 -17.0°
Sets 19:57:51 0° 31° (NNE) 3,239 6.8 -17.4°
